Location: Unspecified
(0.0000°N, 0.0000°E)
Time: 11:49:53
(UTC+02:00)

Cosmos 1908 Rocket - Visible Passes

Search period start: 01 August 2014 00:00
Search period end: 11 August 2014 00:00
Orbit: 607 x 635 km, 82.5° (Epoch: 31 July)

Date Brightness Start Highest point End Pass type
(mag) Time Alt. Az. Time Alt. Az. Time Alt. Az.
01 Aug 3.8 07:07:22 10° N 07:11:39 70° E 07:15:58 10° S visible
02 Aug 3.8 07:25:27 10° NNW 07:29:35 46° W 07:33:45 10° SSW visible
03 Aug 6.6 06:07:32 10° NE 06:09:55 15° E 06:12:18 10° ESE visible
04 Aug 5.2 06:23:57 10° NNE 06:27:51 33° E 06:31:45 10° SSE visible
05 Aug 3.5 06:41:28 10° N 06:45:46 83° E 06:50:07 10° S visible
06 Aug 3.9 06:59:41 10° NNW 07:03:42 39° W 07:07:46 10° SSW visible
07 Aug 6.2 05:41:13 10° NE 05:44:02 17° E 05:46:52 10° SE visible
07 Aug 5.0 07:18:49 10° NW 07:21:39 17° W 07:24:30 10° SW visible
08 Aug 4.8 05:57:55 10° NNE 06:01:57 39° E 06:02:16 39° E visible
09 Aug 4.9 06:15:34 10° N 06:17:38 28° N 06:17:38 28° N visible
